TimeEDT,TemperatureF,Dew PointF,Humidity,Sea Level PressureIn,VisibilityMPH,Wind Direction,Wind SpeedMPH,Gust SpeedMPH,PrecipitationIn,Events,Conditions,WindDirDegrees,DateUTC
12:14 AM,53.8,47.5,79,29.95,10.0,SW,10.4,-,N/A,,Clear,230,2013-09-04 04:14:00
12:33 AM,54.5,47.5,77,29.95,10.0,SW,9.2,-,N/A,,Clear,230,2013-09-04 04:33:00
12:54 AM,55.6,48.4,77,29.95,10.0,SW,10.4,-,N/A,,Clear,230,2013-09-04 04:54:00
1:14 AM,55.6,48.6,77,29.95,10.0,SW,9.2,-,N/A,,Clear,230,2013-09-04 05:14:00
1:33 AM,53.4,48.2,82,29.95,10.0,WSW,9.2,-,N/A,,Clear,240,2013-09-04 05:33:00
1:54 AM,52.5,48.2,85,29.95,10.0,WSW,8.1,-,N/A,,Clear,240,2013-09-04 05:54:00
2:14 AM,52.7,48.6,86,29.95,10.0,SW,4.6,-,N/A,,Clear,230,2013-09-04 06:14:00
2:33 AM,53.6,49.1,85,29.95,10.0,SSW,5.8,-,N/A,,Clear,210,2013-09-04 06:33:00
2:54 AM,54.5,49.5,83,29.95,10.0,SSW,4.6,-,N/A,,Clear,210,2013-09-04 06:54:00
3:14 AM,54.5,50.0,85,29.95,10.0,SSW,8.1,-,N/A,,Clear,210,2013-09-04 07:14:00
3:33 AM,54.0,50.0,86,29.94,10.0,SW,8.1,-,N/A,,Clear,220,2013-09-04 07:33:00
3:54 AM,53.6,49.6,86,29.94,10.0,SW,8.1,-,N/A,,Clear,230,2013-09-04 07:54:00
4:13 AM,53.2,49.6,88,29.94,10.0,SW,8.1,-,N/A,,Clear,230,2013-09-04 08:13:00
4:33 AM,53.6,50.2,88,29.95,10.0,SW,6.9,-,N/A,,Clear,220,2013-09-04 08:33:00
4:54 AM,53.6,50.4,89,29.95,10.0,SW,8.1,-,N/A,,Clear,220,2013-09-04 08:54:00
5:13 AM,53.8,50.7,89,29.94,10.0,SW,10.4,-,N/A,,Clear,230,2013-09-04 09:13:00
5:33 AM,53.6,50.9,91,29.94,10.0,SW,12.7,-,N/A,,Clear,230,2013-09-04 09:33:00
5:54 AM,53.2,50.9,92,29.94,10.0,SW,10.4,-,N/A,,Scattered Clouds,230,2013-09-04 09:54:00
6:13 AM,54.0,52.0,93,29.94,10.0,SW,10.4,-,N/A,,Clear,230,2013-09-04 10:13:00
6:34 AM,54.7,52.7,93,29.94,10.0,WSW,10.4,-,N/A,,Clear,250,2013-09-04 10:34:00
6:54 AM,56.3,53.6,91,29.95,10.0,WSW,9.2,-,N/A,,Clear,250,2013-09-04 10:54:00
7:13 AM,55.4,53.1,92,29.95,10.0,WSW,9.2,-,N/A,,Clear,240,2013-09-04 11:13:00
7:34 AM,55.8,53.6,92,29.96,10.0,WSW,8.1,-,N/A,,Clear,240,2013-09-04 11:34:00
7:54 AM,57.0,54.1,90,29.96,10.0,SW,6.9,-,N/A,,Clear,230,2013-09-04 11:54:00
8:13 AM,58.5,54.7,87,29.97,10.0,WSW,5.8,-,N/A,,Clear,240,2013-09-04 12:13:00
8:34 AM,61.7,56.1,82,29.98,10.0,West,4.6,-,N/A,,Clear,270,2013-09-04 12:34:00
8:54 AM,63.1,56.3,78,29.98,10.0,West,10.4,-,N/A,,Clear,270,2013-09-04 12:54:00
9:13 AM,65.1,56.8,75,29.98,10.0,West,10.4,-,N/A,,Clear,280,2013-09-04 13:13:00
9:34 AM,65.8,57.0,73,29.98,10.0,West,6.9,-,N/A,,Scattered Clouds,280,2013-09-04 13:34:00
9:54 AM,68.7,57.7,68,29.98,10.0,West,8.1,-,N/A,,Scattered Clouds,280,2013-09-04 13:54:00
10:13 AM,70.7,57.9,64,29.98,10.0,West,11.5,-,N/A,,Clear,280,2013-09-04 14:13:00
10:34 AM,72.1,58.1,61,29.98,10.0,WNW,11.5,16.1,N/A,,Clear,290,2013-09-04 14:34:00
10:54 AM,74.1,58.5,58,29.99,10.0,NW,8.1,-,N/A,,Clear,320,2013-09-04 14:54:00
11:13 AM,73.9,58.3,58,29.99,10.0,NW,9.2,-,N/A,,Clear,310,2013-09-04 15:13:00
11:34 AM,74.8,58.5,57,30.00,10.0,NW,10.4,-,N/A,,Scattered Clouds,310,2013-09-04 15:34:00
11:54 AM,73.8,58.8,59,30.00,10.0,North,9.2,-,N/A,,Mostly Cloudy,350,2013-09-04 15:54:00
12:13 PM,71.4,59.2,65,30.01,10.0,North,11.5,-,N/A,,Overcast,350,2013-09-04 16:13:00
12:34 PM,70.9,60.1,69,30.01,10.0,North,9.2,-,N/A,,Overcast,360,2013-09-04 16:34:00
12:54 PM,70.0,59.9,70,30.01,10.0,North,11.5,17.3,N/A,,Overcast,10,2013-09-04 16:54:00
1:13 PM,66.4,58.5,76,30.02,10.0,NE,11.5,-,N/A,,Overcast,40,2013-09-04 17:13:00
1:34 PM,69.3,58.3,68,30.02,10.0,NE,11.5,-,N/A,,Overcast,50,2013-09-04 17:34:00
1:54 PM,66.6,56.5,70,30.03,10.0,NE,13.8,-,N/A,,Overcast,40,2013-09-04 17:54:00
2:13 PM,65.5,55.8,71,30.03,10.0,NE,13.8,-,N/A,,Overcast,40,2013-09-04 18:13:00
2:34 PM,67.1,55.6,66,30.04,10.0,NNE,12.7,-,N/A,,Overcast,30,2013-09-04 18:34:00
2:54 PM,65.7,55.0,69,30.03,10.0,NNE,10.4,-,N/A,,Mostly Cloudy,30,2013-09-04 18:54:00
3:13 PM,66.2,55.6,69,30.03,10.0,NNE,10.4,-,N/A,,Overcast,20,2013-09-04 19:13:00
3:34 PM,66.2,55.0,67,30.03,10.0,NE,12.7,-,N/A,,Overcast,50,2013-09-04 19:34:00
3:53 PM,64.0,54.7,72,30.03,10.0,ENE,9.2,-,N/A,,Overcast,70,2013-09-04 19:53:00
4:13 PM,64.9,55.2,71,30.03,10.0,ENE,8.1,-,N/A,,Overcast,60,2013-09-04 20:13:00
4:34 PM,67.3,55.8,66,30.03,10.0,ENE,6.9,-,N/A,,Mostly Cloudy,60,2013-09-04 20:34:00
4:53 PM,65.3,55.2,70,30.03,10.0,NE,6.9,-,N/A,,Mostly Cloudy,50,2013-09-04 20:53:00
5:13 PM,65.7,55.8,70,30.04,10.0,ENE,8.1,-,N/A,,Mostly Cloudy,60,2013-09-04 21:13:00
5:34 PM,64.0,56.1,75,30.04,10.0,East,9.2,-,N/A,,Overcast,90,2013-09-04 21:34:00
5:53 PM,64.6,56.3,74,30.04,10.0,ENE,10.4,-,N/A,,Scattered Clouds,60,2013-09-04 21:53:00
6:13 PM,63.5,56.3,77,30.04,10.0,ENE,8.1,-,N/A,,Scattered Clouds,70,2013-09-04 22:13:00
6:34 PM,62.2,56.3,81,30.03,10.0,NE,8.1,-,N/A,,Mostly Cloudy,50,2013-09-04 22:34:00
6:53 PM,62.2,56.1,80,30.03,10.0,ENE,5.8,-,N/A,,Mostly Cloudy,60,2013-09-04 22:53:00
7:14 PM,62.2,55.6,79,30.03,10.0,NE,8.1,-,N/A,,Scattered Clouds,40,2013-09-04 23:14:00
7:34 PM,61.7,54.7,78,30.04,10.0,NE,5.8,-,N/A,,Mostly Cloudy,40,2013-09-04 23:34:00
7:53 PM,61.2,53.6,76,30.04,10.0,NE,3.5,-,N/A,,Mostly Cloudy,50,2013-09-04 23:53:00
8:14 PM,60.3,52.5,76,30.05,10.0,NNE,3.5,-,N/A,,Scattered Clouds,30,2013-09-05 00:14:00
8:34 PM,59.9,52.2,76,30.05,10.0,Calm,Calm,-,N/A,,Clear,0,2013-09-05 00:34:00
8:53 PM,57.2,52.9,85,30.06,10.0,Calm,Calm,-,N/A,,Clear,0,2013-09-05 00:53:00
9:14 PM,54.5,51.8,91,30.07,10.0,WSW,4.6,-,N/A,,Clear,240,2013-09-05 01:14:00
9:34 PM,54.1,52.3,94,30.07,10.0,West,3.5,-,N/A,,Clear,270,2013-09-05 01:34:00
9:53 PM,54.5,52.3,92,30.08,10.0,Calm,Calm,-,N/A,,Clear,0,2013-09-05 01:53:00
10:14 PM,52.5,50.0,91,30.09,10.0,WNW,4.6,-,N/A,,Clear,290,2013-09-05 02:14:00
10:34 PM,54.0,52.7,95,30.10,10.0,NNW,5.8,-,N/A,,Scattered Clouds,340,2013-09-05 02:34:00
10:53 PM,55.0,51.1,86,30.11,10.0,NNW,5.8,-,N/A,,Scattered Clouds,340,2013-09-05 02:53:00
11:14 PM,54.5,49.1,82,30.11,10.0,NNW,6.9,-,N/A,,Clear,330,2013-09-05 03:14:00
11:34 PM,53.2,47.5,81,30.12,10.0,NNW,6.9,-,N/A,,Clear,330,2013-09-05 03:34:00
11:53 PM,52.5,45.7,78,30.12,10.0,NNW,5.8,-,N/A,,Clear,330,2013-09-05 03:53:00